Cloud_Cover
100 100 96 100 83 64 80 63 81 39 48 38 77 5 5 5 5 5 5 5 4 1 0 3 0 3 35 89 100 42 11 5 4 0 58 70 40 6 5 22 51 6 5 0 0 0 0
100 95 100 82 100 96 69 100 86 73 5 3 7 5 5 5 5 5 5 5 5 13 2 5 1 2 24 71 96 8 98 11 5 1 56 12 69 19 12 50 42 39 5 0 4 0 0
100 100 100 100 100 100 100 15 5 2 2 0 0 2 5 5 5 5 88 53 5 5 5 4 2 44 89 100 68 84 88 61 6 4 60 3 32 53 23 62 98 93 5 0 2 0 0
100 100 100 100 100 37 69 4 4 1 0 2 1 0 4 5 5 11 100 100 97 5 18 23 7 96 29 100 98 100 51 100 8 5 5 5 73 80 29 100 100 42 11 0 5 0 0
100 100 100 100 100 100 85 82 8 0 0 0 0 0 5 5 12 100 100 100 100 90 98 52 50 84 99 100 100 100 100 100 5 5 11 31 99 100 100 87 100 90 80 4 5 21 1
100 100 100 100 100 100 82 5 2 4 5 5 4 0 5 88 36 100 100 100 72 100 100 96 89 95 97 100 100 100 100 100 7 5 5 88 100 100 100 2 100 100 100 12 4 45 36
100 100 95 100 100 100 79 42 6 5 35 5 5 4 5 100 42 100 100 100 100 100 100 100 100 100 100 100 100 68 100 100 5 5 5 96 100 100 100 50 100 100 100 91 5 92 90
100 100 100 100 100 100 100 15 5 5 47 5 5 5 7 100 77 83 93 100 100 100 100 100 100 100 100 100 100 100 75 100 51 5 24 5 94 100 5 11 100 100 100 53 5 86 84
100 100 100 100 100 99 70 5 99 35 58 25 76 100 98 91 79 92 97 100 100 100 100 100 100 100 100 70 100 100 100 100 100 6 6 38 100 100 82 11 97 100 100 44 10 6 76
100 100 100 100 100 98 5 5 49 67 65 87 100 62 60 100 100 91 95 79 94 100 100 100 100 100 100 100 84 100 100 100 100 87 7 53 94 100 93 75 100 100 54 93 96 44 29
100 100 64 84 100 6 5 5 5 5 7 100 100 100 100 100 100 98 100 100 99 100 48 100 100 98 100 100 100 100 100 100 100 100 96 81 95 95 55 90 88 100 100 100 100 70 100
100 100 100 100 100 18 12 5 5 23 22 5 100 100 100 100 100 25 100 100 97 55 75 100 100 100 100 100 100 100 100 100 100 100 100 100 100 76 100 91 92 100 100 100 83 57 100
100 100 100 100 100 40 5 5 5 5 5 5 24 100 100 100 100 100 92 100 90 87 96 100 100 100 100 100 100 100 100 100 100 100 100 100 100 100 100 100 5 30 100 29 9 100 100
100 100 100 100 100 47 5 5 5 5 5 2 86 89 99 100 100 100 100 98 98 19 100 96 100 100 100 100 100 100 100 100 100 100 100 86 100 100 100 100 100 98 81 6 78 91 40
100 100 100 100 100 43 5 2 5 95 72 6 70 54 100 100 100 99 98 100 78 100 100 100 100 100 100 100 100 100 100 100 100 100 100 100 100 100 100 100 100 100 96 88 7 5 6
84 99 100 100 86 7 5 3 5 54 85 16 90 92 98 72 97 100 100 100 98 69 100 100 90 100 100 100 100 100 100 100 100 100 100 100 100 100 100 100 100 78 99 99 25 15 54
97 98 52 5 38 5 4 0 5 5 22 45 100 100 96 99 100 100 100 99 100 100 99 100 100 66 100 100 100 100 100 100 100 100 100 100 100 100 100 100 100 100 100 82 22 12 46
100 95 5 5 5 4 5 5 1 3 10 95 100 100 98 92 100 100 100 100 100 100 100 100 100 67 98 89 100 100 100 100 100 100 100 100 70 100 100 100 100 100 92 85 99 5 5
26 5 5 5 23 24 11 16 20 12 48 69 100 100 98 100 99 100 100 80 13 100 100 100 100 100 100 96 62 100 100 100 100 100 100 100 100 80 100 100 100 100 92 92 19 4 53
99 5 5 5 5 5 14 8 6 5 25 100 100 100 100 100 99 38 100 96 96 26 89 97 97 100 100 96 12 74 100 79 100 100 100 100 100 100 100 100 100 90 88 75 100 8 83
5 5 6 6 41 96 100 100 100 98 76 100 100 100 91 100 100 100 90 100 100 100 45 48 11 6 62 100 67 58 100 93 45 100 100 100 100 100 100 100 100 100 100 100 100 100 100
100 5 32 5 5 74 100 100 100 100 100 100 100 100 100 100 98 100 100 100 100 100 97 12 5 53 100 14 37 50 47 35 83 100 100 100 100 100 100 100 100 100 100 98 36 100 100
100 99 100 100 100 100 100 100 100 100 100 100 100 100 100 100 80 100 100 100 100 100 100 100 100 100 95 100 20 5 5 15 5 5 48 95 100 100 100 100 100 100 100 100 100 87 100
100 100 100 100 100 100 100 100 100 100 98 100 100 100 100 100 100 100 100 100 100 100 100 100 100 100 100 86 85 85 91 5 5 4 1 1 98 100 100 100 100 100 100 100 100 100 100
100 100 100 100 100 100 100 100 100 100 100 100 100 100 100 100 100 100 100 100 100 100 100 100 100 100 100 100 84 66 32 7 4 0 0 0 94 100 80 44 70 100 100 100 100 100 100
100 100 100 100 100 100 100 100 100 100 100 100 100 100 100 100 90 99 100 100 100 100 100 100 100 100 100 100 100 100 100 10 1 3 0 21 60 47 91 100 32 87 100 100 100 31 100
100 100 100 100 100 100 100 100 100 100 100 100 100 100 100 100 99 100 100 100 100 100 100 100 100 100 100 100 100 98 99 100 7 90 54 99 97 82 61 85 10 0 68 100 100 13 5
100 88 97 100 100 100 100 100 100 100 100 100 100 100 100 100 100 100 100 100 100 100 100 100 100 100 100 100 100 100 83 9 5 3 5 18 50 98 92 100 58 0 4 100 100 97 40
98 100 73 100 100 100 100 100 100 100 100 100 100 100 100 100 100 100 100 100 100 100 100 100 100 100 100 94 42 18 5 20 3 5 0 4 2 6 2 9 0 0 0 3 99 83 96